TimeCDT,TemperatureF,Dew PointF,Humidity,Sea Level PressureIn,VisibilityMPH,Wind Direction,Wind SpeedMPH,Gust SpeedMPH,PrecipitationIn,Events,Conditions,WindDirDegrees,DateUTC
12:15 AM,79.7,69.8,72,29.95,10.0,SE,11.5,18.4,N/A,,Clear,140,2013-07-14 05:15:00
12:35 AM,78.8,70.3,75,29.95,10.0,SE,11.5,17.3,N/A,,Scattered Clouds,140,2013-07-14 05:35:00
12:55 AM,78.4,70.7,77,29.96,10.0,SE,12.7,17.3,N/A,,Clear,140,2013-07-14 05:55:00
1:15 AM,77.9,71.1,79,29.96,10.0,ESE,8.1,-,N/A,,Scattered Clouds,120,2013-07-14 06:15:00
1:35 AM,77.9,70.9,79,29.98,10.0,SE,10.4,-,N/A,,Scattered Clouds,130,2013-07-14 06:35:00
1:55 AM,77.5,70.7,79,29.97,10.0,SE,11.5,-,N/A,,Clear,130,2013-07-14 06:55:00
2:15 AM,76.5,70.2,81,29.97,10.0,SE,13.8,19.6,N/A,,Clear,140,2013-07-14 07:15:00
2:35 AM,75.7,68.2,77,29.96,10.0,SSE,19.6,26.5,N/A,,Clear,150,2013-07-14 07:35:00
2:55 AM,74.8,68.0,79,29.97,10.0,SSE,17.3,24.2,N/A,Thunderstorm,Clear,150,2013-07-14 07:55:00
3:15 AM,74.5,67.5,79,29.98,10.0,SSE,13.8,23.0,N/A,,Clear,150,2013-07-14 08:15:00
3:35 AM,74.3,67.5,79,29.99,10.0,SSE,17.3,24.2,N/A,,Scattered Clouds,150,2013-07-14 08:35:00
3:55 AM,73.9,67.3,80,29.99,10.0,SSE,17.3,25.3,N/A,,Overcast,160,2013-07-14 08:55:00
4:15 AM,74.3,67.1,78,29.98,10.0,SSE,16.1,21.9,N/A,,Overcast,160,2013-07-14 09:15:00
4:35 AM,74.7,67.1,77,29.98,10.0,South,13.8,23.0,N/A,,Overcast,170,2013-07-14 09:35:00
4:55 AM,74.3,67.3,79,29.98,10.0,South,17.3,21.9,N/A,Thunderstorm,Mostly Cloudy,170,2013-07-14 09:55:00
5:15 AM,75.2,66.7,75,29.99,10.0,South,12.7,-,N/A,Thunderstorm,Mostly Cloudy,180,2013-07-14 10:15:00
5:35 AM,74.7,66.9,77,29.99,10.0,SSE,13.8,23.0,N/A,Thunderstorm,Mostly Cloudy,150,2013-07-14 10:35:00
5:55 AM,73.4,67.5,82,30.00,10.0,SSE,16.1,20.7,N/A,,Scattered Clouds,160,2013-07-14 10:55:00
6:15 AM,72.9,67.5,83,29.99,10.0,SSE,12.7,17.3,N/A,,Scattered Clouds,160,2013-07-14 11:15:00
6:35 AM,72.9,67.5,83,29.98,10.0,South,12.7,-,N/A,Rain,Light Rain,170,2013-07-14 11:35:00
6:55 AM,72.5,67.6,85,29.96,10.0,South,10.4,-,N/A,Rain,Light Rain,180,2013-07-14 11:55:00
7:15 AM,72.1,68.2,87,29.97,10.0,SSE,9.2,-,N/A,,Light Drizzle,160,2013-07-14 12:15:00
7:35 AM,70.9,68.9,93,29.98,10.0,ESE,5.8,-,N/A,Rain,Light Rain,120,2013-07-14 12:35:00
7:55 AM,71.2,69.1,93,29.98,10.0,ESE,11.5,-,N/A,,Light Drizzle,120,2013-07-14 12:55:00
8:15 AM,70.9,69.1,94,29.99,10.0,East,9.2,-,N/A,,Clear,100,2013-07-14 13:15:00
8:35 AM,71.1,69.1,93,29.99,10.0,ESE,10.4,-,N/A,,Clear,120,2013-07-14 13:35:00
8:55 AM,71.2,69.1,93,29.99,10.0,SE,8.1,-,N/A,,Mostly Cloudy,130,2013-07-14 13:55:00
9:15 AM,71.8,69.1,91,30.01,10.0,SE,12.7,-,N/A,,Overcast,130,2013-07-14 14:15:00
9:35 AM,71.8,67.5,86,30.02,10.0,SSE,12.7,17.3,N/A,,Scattered Clouds,150,2013-07-14 14:35:00
9:55 AM,72.3,66.7,83,30.03,10.0,SE,10.4,17.3,N/A,,Clear,140,2013-07-14 14:55:00
10:15 AM,72.7,66.9,82,30.04,10.0,SE,10.4,-,N/A,,Clear,130,2013-07-14 15:15:00
10:35 AM,73.0,66.9,81,30.05,10.0,ESE,10.4,-,N/A,,Clear,120,2013-07-14 15:35:00
10:55 AM,73.4,67.6,82,30.06,10.0,ESE,6.9,-,N/A,,Scattered Clouds,120,2013-07-14 15:55:00
11:15 AM,73.8,66.6,78,30.07,10.0,ESE,13.8,-,N/A,,Mostly Cloudy,120,2013-07-14 16:15:00
11:35 AM,73.6,66.7,79,30.07,10.0,SE,9.2,-,N/A,,Mostly Cloudy,130,2013-07-14 16:35:00
11:55 AM,72.9,66.6,81,30.08,10.0,SE,9.2,-,N/A,,Mostly Cloudy,130,2013-07-14 16:55:00
12:15 PM,74.1,67.1,79,30.08,10.0,SE,10.4,-,N/A,,Mostly Cloudy,130,2013-07-14 17:15:00
12:35 PM,73.9,67.1,79,30.08,10.0,SE,10.4,-,N/A,,Overcast,140,2013-07-14 17:35:00
12:55 PM,74.3,67.1,78,30.09,10.0,SSE,10.4,-,N/A,,Overcast,150,2013-07-14 17:55:00
1:15 PM,74.8,67.5,78,30.09,10.0,SSE,11.5,-,N/A,,Overcast,150,2013-07-14 18:15:00
1:35 PM,76.1,68.0,76,30.09,10.0,SSE,9.2,-,N/A,,Overcast,160,2013-07-14 18:35:00
1:55 PM,75.4,68.2,78,30.09,10.0,SSE,9.2,-,N/A,,Overcast,150,2013-07-14 18:55:00
2:15 PM,74.3,68.2,81,30.09,10.0,SE,10.4,-,N/A,,Overcast,140,2013-07-14 19:15:00
2:35 PM,73.4,69.8,88,30.10,7.0,SE,10.4,-,N/A,Rain,Light Rain,140,2013-07-14 19:35:00
2:55 PM,73.8,69.8,87,30.10,10.0,SE,9.2,-,N/A,,Overcast,140,2013-07-14 19:55:00
3:15 PM,75.2,69.8,83,30.10,10.0,SSE,9.2,-,N/A,,Overcast,150,2013-07-14 20:15:00
3:35 PM,76.3,70.0,81,30.10,10.0,SSE,5.8,-,N/A,,Overcast,160,2013-07-14 20:35:00
3:55 PM,77.0,69.8,78,30.10,10.0,SSE,10.4,-,N/A,,Overcast,150,2013-07-14 20:55:00
4:15 PM,76.5,69.3,78,30.09,10.0,SSE,9.2,-,N/A,,Overcast,150,2013-07-14 21:15:00
4:35 PM,77.4,68.5,74,30.09,10.0,SSE,10.4,-,N/A,,Overcast,150,2013-07-14 21:35:00
4:55 PM,79.2,65.8,64,30.09,10.0,SSE,10.4,-,N/A,,Mostly Cloudy,150,2013-07-14 21:55:00
5:15 PM,79.5,65.7,62,30.08,10.0,SE,8.1,-,N/A,,Mostly Cloudy,140,2013-07-14 22:15:00
5:35 PM,80.4,61.2,52,30.08,10.0,SSE,8.1,-,N/A,,Scattered Clouds,160,2013-07-14 22:35:00
5:55 PM,80.6,61.7,52,30.08,10.0,SSE,6.9,-,N/A,,Scattered Clouds,150,2013-07-14 22:55:00
6:15 PM,79.5,62.1,55,30.08,10.0,SSE,8.1,-,N/A,,Scattered Clouds,150,2013-07-14 23:15:00
6:35 PM,80.6,62.6,54,30.08,10.0,SSE,4.6,-,N/A,,Clear,160,2013-07-14 23:35:00
6:55 PM,80.1,62.8,55,30.08,10.0,ESE,5.8,-,N/A,,Clear,120,2013-07-14 23:55:00
7:15 PM,79.7,64.4,59,30.08,10.0,East,3.5,-,N/A,,Clear,100,2013-07-15 00:15:00
7:35 PM,79.2,64.6,61,30.08,10.0,Calm,Calm,-,N/A,,Clear,0,2013-07-15 00:35:00
7:55 PM,78.4,65.1,63,30.09,10.0,Calm,Calm,-,N/A,,Clear,0,2013-07-15 00:55:00
8:15 PM,77.2,65.3,67,30.10,10.0,Calm,Calm,-,N/A,,Clear,0,2013-07-15 01:15:00
8:35 PM,75.2,67.5,77,30.11,10.0,Calm,Calm,-,N/A,,Clear,0,2013-07-15 01:35:00
8:55 PM,73.0,68.2,85,30.11,10.0,NNW,4.6,-,N/A,,Clear,340,2013-07-15 01:55:00
9:15 PM,70.7,67.3,89,30.11,10.0,North,5.8,-,N/A,,Clear,350,2013-07-15 02:15:00
9:35 PM,69.8,67.3,92,30.12,10.0,NNW,4.6,-,N/A,,Mostly Cloudy,340,2013-07-15 02:35:00
9:55 PM,69.6,67.1,92,30.13,10.0,NNW,3.5,-,N/A,,Mostly Cloudy,340,2013-07-15 02:55:00
10:15 PM,69.8,66.6,89,30.15,10.0,North,4.6,-,N/A,,Mostly Cloudy,10,2013-07-15 03:15:00
10:35 PM,69.4,66.6,91,30.15,10.0,NE,4.6,-,N/A,,Mostly Cloudy,40,2013-07-15 03:35:00
10:55 PM,68.9,66.2,91,30.16,10.0,East,5.8,-,N/A,,Scattered Clouds,80,2013-07-15 03:55:00
11:15 PM,68.9,64.9,87,30.16,10.0,East,4.6,-,N/A,,Clear,100,2013-07-15 04:15:00
11:35 PM,67.1,64.4,91,30.16,10.0,ESE,5.8,-,N/A,,Clear,110,2013-07-15 04:35:00
11:55 PM,66.7,63.9,90,30.17,10.0,ESE,4.6,-,N/A,,Clear,110,2013-07-15 04:55:00